Date,TemperatureHighF,TemperatureAvgF,TemperatureLowF,DewpointHighF,DewpointAvgF,DewpointLowF,HumidityHigh,HumidityAvg,HumidityLow,PressureMaxIn,PressureMinIn,WindSpeedMaxMPH,WindSpeedAvgMPH,GustSpeedMaxMPH,PrecipitationSumIn
2013-6-1,90,81,70,68,66,62,75,60,44,29.93,29.81,23,4,23,0.00
2013-6-2,89,79,71,70,66,63,79,65,46,29.84,29.68,34,5,34,0.00
2013-6-3,75,70,64,66,63,48,88,79,57,29.81,29.71,14,2,14,0.35
2013-6-4,68,63,55,50,47,43,68,56,45,30.06,29.79,22,5,22,0.00
2013-6-5,72,64,55,51,48,45,75,56,41,30.15,30.05,17,4,17,0.00
2013-6-6,75,67,59,54,50,42,72,56,35,30.15,30.06,17,4,17,0.00
2013-6-7,63,57,54,55,52,48,91,84,69,30.08,29.77,18,6,18,2.57
2013-6-8,73,62,54,65,57,51,91,85,73,29.96,29.57,20,4,20,0.96
2013-6-9,76,68,58,60,57,54,87,69,51,30.12,29.96,15,2,15,0.00
2013-6-10,70,64,59,58,56,54,88,74,59,30.17,29.99,16,4,16,0.70
2013-6-11,62,59,57,58,55,53,92,88,82,29.99,29.53,25,5,25,1.34
2013-6-12,68,62,57,58,56,53,90,80,64,29.77,29.52,28,4,28,0.08
2013-6-13,68,59,53,57,53,49,88,80,62,29.78,29.64,15,2,15,0.60
2013-6-14,67,59,52,58,53,48,90,82,66,29.72,29.60,17,4,17,1.36
2013-6-15,74,66,56,55,51,46,83,59,37,29.90,29.72,19,4,19,0.00
2013-6-16,74,68,57,61,55,49,77,64,50,29.90,29.67,16,2,16,0.00
2013-6-17,83,70,62,65,60,-100,89,73,43,29.87,29.73,30,-1,30,0.48
2013-6-18,74,64,59,64,59,55,90,85,62,29.91,29.84,16,2,16,0.50
2013-6-19,71,64,57,56,52,46,89,67,42,30.11,29.87,15,4,15,0.01
2013-6-20,76,68,56,57,52,50,81,60,40,30.22,30.10,13,-1,13,0.00
2013-6-21,80,72,61,65,59,53,76,64,45,30.21,30.14,13,3,13,0.01
2013-6-22,82,74,65,66,60,56,75,62,48,30.18,30.07,20,3,20,0.00
2013-6-23,87,77,67,73,65,56,74,65,55,30.12,29.94,23,3,23,0.00
2013-6-24,90,80,72,74,70,67,89,72,55,29.98,29.82,24,3,24,0.51
2013-6-25,92,81,68,77,68,65,94,69,45,29.88,29.68,21,3,21,0.00
2013-6-26,83,78,71,72,67,63,81,70,59,29.82,29.68,11,3,11,0.04
2013-6-27,71,67,63,64,61,58,85,80,73,29.83,29.72,13,4,13,0.03
2013-6-28,80,71,62,72,65,57,87,83,71,29.73,29.45,22,5,22,0.52
2013-6-29,82,76,72,71,68,66,88,78,62,29.69,29.48,22,5,22,0.00
2013-6-30,83,76,71,72,68,66,86,78,66,29.90,29.69,19,3,19,0.00